SCP
0 0 0 0 0 0 0 0 0 0 0 0 0 1 2 4 2 3 2 2 3 2 1 1 1 1 2 3 3 2 3 3
0 0 0 0 0 0 0 0 0 0 0 0 0 1 2 3 3 2 2 2 2 2 1 1 1 1 1 2 1 2 3 2
0 0 0 0 0 0 0 0 0 0 0 0 0 0 0 2 3 4 3 4 3 1 2 2 1 2 1 1 1 2 2 1
0 0 0 0 0 0 0 0 0 0 0 0 0 0 0 0 1 4 2 3 3 3 2 2 2 1 1 0 1 3 1 0
0 0 0 0 0 0 0 0 0 0 0 0 0 0 0 0 0 1 2 4 4 3 3 3 3 2 0 0 0 2 1 1
0 0 0 0 0 0 0 0 0 0 0 0 0 0 0 0 0 0 2 3 3 4 4 3 2 2 0 0 0 1 1 0
0 0 0 0 0 0 0 0 0 0 0 0 0 0 0 0 0 0 1 1 4 3 2 3 2 3 0 0 0 1 0 0
0 0 0 0 0 0 0 0 0 0 0 0 0 0 0 0 0 0 0 1 0 1 2 2 2 3 0 0 0 0 1 0
0 0 0 0 0 0 0 0 0 0 0 0 0 0 0 0 0 0 0 0 0 0 2 2 2 2 0 0 0 0 0 0
0 0 0 0 0 0 0 0 0 0 0 0 0 -0 0 0 0 0 0 0 0 0 0 2 2 2 1 0 0 0 0 0
0 0 0 0 0 0 0 0 0 0 0 0 0 0 0 0 0 0 0 1 0 0 0 0 2 1 1 0 0 0 0 0
0 0 0 0 0 0 0 0 0 0 0 0 0 0 0 0 0 0 0 1 1 1 1 1 1 2 2 0 0 0 0 0
0 0 0 0 0 0 0 0 0 0 0 0 0 0 0 0 0 0 0 0 0 1 1 1 1 1 1 1 0 0 0 0
0 0 0 0 0 0 0 0 0 0 0 0 0 0 0 0 0 0 0 0 0 0 0 0 0 1 0 0 0 0 0 0
0 0 0 0 0 0 0 0 0 0 0 0 0 -0 -0 0 0 0 0 0 0 0 0 0 0 0 0 0 0 0 0 0
0 0 0 0 0 0 0 0 0 0 0 0 0 0 -0 0 0 0 0 0 0 0 0 0 0 0 0 0 0 0 0 0
0 0 0 0 0 0 0 0 0 0 0 0 0 0 0 0 -0 0 0 0 0 0 0 0 0 0 0 0 0 0 0 0
0 0 0 0 0 0 0 0 0 0 0 0 0 0 0 0 0 0 0 0 0 0 0 0 0 0 0 0 0 0 0 0
0 0 0 0 0 0 0 0 0 0 0 0 0 0 0 0 0 0 -0 0 0 0 0 0 0 0 0 0 0 0 0 0
0 0 0 0 0 0 0 0 0 0 0 0 0 0 0 0 0 0 0 0 0 0 0 0 0 0 0 0 0 0 0 0
Wind_Speed_500mb
46 51 53 51 50 50 48 47 43 40 34 30 26 32 36 35 34 39 47 43 46 48 44 45 44 44 43 42 41 42 41 36
55 56 59 62 61 57 55 53 50 47 42 36 30 28 30 38 36 35 40 42 40 40 40 41 43 44 42 40 39 38 30 31
64 68 69 72 68 64 61 60 57 53 52 48 43 34 30 29 34 36 35 35 39 36 42 44 45 45 43 43 43 39 36 29
77 75 69 68 65 66 69 67 67 66 65 63 56 49 44 33 27 36 44 46 43 49 54 50 49 51 50 51 48 43 36 30
68 73 78 82 83 83 81 80 78 79 78 76 70 61 55 49 35 31 43 53 52 57 60 58 57 57 54 61 53 43 38 28
85 84 94 97 95 92 103 82 83 82 79 73 80 72 69 57 73 49 46 48 60 58 55 56 60 63 50 60 59 48 38 29
96 96 96 100 96 91 87 95 77 88 96 85 73 87 75 68 63 96 63 37 41 57 58 55 61 66 64 62 64 59 37 31
95 97 98 92 88 83 84 85 89 84 86 83 77 76 84 81 65 73 112 79 52 34 56 66 64 64 69 73 71 52 43 33
94 92 89 87 85 79 79 83 85 81 77 82 85 94 78 90 78 63 82 100 99 72 54 63 65 66 70 75 76 67 47 38
91 89 85 85 78 75 73 75 74 72 73 77 88 98 105 83 74 81 61 71 107 109 84 70 69 72 72 75 76 77 58 47
88 86 88 84 74 70 72 68 64 60 65 70 73 74 73 93 83 76 59 69 71 117 91 98 72 71 77 77 72 74 67 59
92 85 80 81 70 56 52 54 56 54 63 71 67 64 74 69 91 68 72 71 76 76 87 94 95 78 77 70 80 67 67 66
82 78 77 74 65 61 42 41 55 44 43 45 54 70 59 65 85 91 74 68 72 79 74 78 84 85 77 76 71 72 76 71
85 80 71 64 61 49 45 47 52 47 46 44 47 54 54 54 59 75 104 64 75 74 78 78 71 80 77 75 73 63 55 54
80 74 64 59 59 41 38 48 41 44 38 25 6 35 44 44 55 63 64 99 70 87 71 64 70 60 79 76 76 69 56 53
73 65 56 56 47 37 34 42 43 37 32 18 12 20 29 38 45 50 60 84 80 79 92 73 54 48 63 65 69 73 73 66
69 57 54 57 50 36 23 34 47 27 23 17 13 12 17 27 37 24 46 53 64 69 64 52 66 51 41 50 63 68 55 47
73 67 62 56 48 34 17 26 31 18 21 20 10 8 13 18 21 26 37 50 51 55 70 66 58 67 55 56 64 54 55 49
70 64 63 56 49 29 16 18 19 19 18 20 16 11 13 16 20 24 26 32 45 60 56 64 71 71 62 56 52 52 53 51
82 73 67 56 46 31 18 14 12 15 11 6 10 9 7 10 13 19 29 31 36 51 53 39 63 67 75 67 64 60 61 55
Wind_Direction_500mb
298 301 299 300 299 299 300 297 298 302 302 304 296 270 262 254 226 210 202 200 196 193 195 198 202 207 209 213 226 230 225 219
299 299 298 298 296 294 293 294 294 292 291 291 284 285 267 254 244 218 203 199 197 193 196 200 200 201 203 205 209 205 199 189
300 299 297 295 293 291 288 287 287 286 283 279 276 267 271 268 245 235 226 215 199 197 198 200 199 196 195 192 193 191 189 188
302 301 305 303 298 294 294 292 287 287 277 271 268 267 254 254 266 245 225 222 211 201 200 197 200 200 200 193 192 186 188 190
311 307 305 301 298 295 292 289 286 282 276 272 260 257 256 243 238 247 238 230 214 210 204 190 197 201 207 194 186 185 189 193
306 304 302 297 295 288 291 282 279 275 268 270 261 256 247 249 230 237 247 231 223 215 210 202 206 201 206 198 198 193 197 204
299 298 298 297 296 293 287 287 272 270 271 267 262 259 258 242 241 225 235 237 236 221 216 210 204 202 203 206 207 204 205 208
305 301 299 297 296 295 288 280 277 270 267 255 253 247 250 257 239 237 229 231 233 237 221 217 211 204 206 212 211 202 205 213
309 306 301 300 301 299 289 285 280 276 270 262 252 246 245 249 243 235 233 230 227 230 238 228 216 211 213 217 216 207 211 214
314 312 308 308 307 304 296 288 285 278 272 263 254 250 240 242 253 234 230 228 226 224 235 237 229 221 220 218 222 219 212 218
319 317 315 316 313 308 300 298 299 286 274 267 258 252 243 241 233 238 231 218 213 215 218 234 226 224 216 218 222 221 214 218
325 320 318 317 324 324 323 323 316 297 284 274 267 246 242 238 224 222 227 218 208 203 206 213 216 219 207 214 217 219 219 222
327 325 322 324 330 331 329 322 318 312 294 275 258 248 237 231 228 216 217 221 217 211 209 207 207 210 207 206 213 219 223 224
332 333 334 332 334 328 328 330 337 330 312 298 257 232 227 221 222 222 216 214 215 209 209 211 212 210 211 209 212 221 225 220
339 340 340 338 332 331 333 335 331 338 347 355 156 202 209 208 208 214 222 218 214 215 211 205 212 209 211 212 210 212 206 200
348 347 342 341 346 339 330 340 346 2 12 32 110 168 187 195 205 209 209 204 216 206 210 216 218 214 210 210 208 209 208 212
355 357 355 351 355 355 350 339 0 14 28 13 52 120 173 194 186 226 202 196 210 211 214 224 225 220 203 198 207 208 209 217
1 3 5 2 2 4 16 1 358 8 30 38 76 127 150 162 160 170 194 198 198 198 211 220 221 218 206 198 201 206 214 219
12 13 11 8 4 12 12 8 352 8 12 32 49 79 119 148 186 197 189 181 195 198 201 212 211 215 209 208 208 211 217 224
15 23 23 21 21 27 45 34 355 347 343 8 42 51 105 157 183 195 194 189 187 193 198 209 199 205 210 215 219 223 226 225
Wind_Speed_850mb
46 51 53 51 50 50 48 47 43 40 34 30 26 32 36 35 34 39 47 43 46 48 44 45 44 44 43 42 41 42 41 36
55 56 59 62 61 57 55 53 50 47 42 36 30 28 30 38 36 35 40 42 40 40 40 41 43 44 42 40 39 38 30 31
64 68 69 72 68 64 61 60 57 53 52 48 43 34 30 29 34 36 35 35 39 36 42 44 45 45 43 43 43 39 36 29
77 75 69 68 65 66 69 67 67 66 65 63 56 49 44 33 27 36 44 46 43 49 54 50 49 51 50 51 48 43 36 30
68 73 78 82 83 83 81 80 78 79 78 76 70 61 55 49 35 31 43 53 52 57 60 58 57 57 54 61 53 43 38 28
85 84 94 97 95 92 103 82 83 82 79 73 80 72 69 57 73 49 46 48 60 58 55 56 60 63 50 60 59 48 38 29
96 96 96 100 96 91 87 95 77 88 96 85 73 87 75 68 63 96 63 37 41 57 58 55 61 66 64 62 64 59 37 31
95 97 98 92 88 83 84 85 89 84 86 83 77 76 84 81 65 73 112 79 52 34 56 66 64 64 69 73 71 52 43 33
94 92 89 87 85 79 79 83 85 81 77 82 85 94 78 90 78 63 82 100 99 72 54 63 65 66 70 75 76 67 47 38
91 89 85 85 78 75 73 75 74 72 73 77 88 98 105 83 74 81 61 71 107 109 84 70 69 72 72 75 76 77 58 47
88 86 88 84 74 70 72 68 64 60 65 70 73 74 73 93 83 76 59 69 71 117 91 98 72 71 77 77 72 74 67 59
92 85 80 81 70 56 52 54 56 54 63 71 67 64 74 69 91 68 72 71 76 76 87 94 95 78 77 70 80 67 67 66
82 78 77 74 65 61 42 41 55 44 43 45 54 70 59 65 85 91 74 68 72 79 74 78 84 85 77 76 71 72 76 71
85 80 71 64 61 49 45 47 52 47 46 44 47 54 54 54 59 75 104 64 75 74 78 78 71 80 77 75 73 63 55 54
80 74 64 59 59 41 38 48 41 44 38 25 6 35 44 44 55 63 64 99 70 87 71 64 70 60 79 76 76 69 56 53
73 65 56 56 47 37 34 42 43 37 32 18 12 20 29 38 45 50 60 84 80 79 92 73 54 48 63 65 69 73 73 66
69 57 54 57 50 36 23 34 47 27 23 17 13 12 17 27 37 24 46 53 64 69 64 52 66 51 41 50 63 68 55 47
73 67 62 56 48 34 17 26 31 18 21 20 10 8 13 18 21 26 37 50 51 55 70 66 58 67 55 56 64 54 55 49
70 64 63 56 49 29 16 18 19 19 18 20 16 11 13 16 20 24 26 32 45 60 56 64 71 71 62 56 52 52 53 51
82 73 67 56 46 31 18 14 12 15 11 6 10 9 7 10 13 19 29 31 36 51 53 39 63 67 75 67 64 60 61 55
Wind_Direction_850mb
298 301 299 300 299 299 300 297 298 302 302 304 296 270 262 254 226 210 202 200 196 193 195 198 202 207 209 213 226 230 225 219
299 299 298 298 296 294 293 294 294 292 291 291 284 285 267 254 244 218 203 199 197 193 196 200 200 201 203 205 209 205 199 189
300 299 297 295 293 291 288 287 287 286 283 279 276 267 271 268 245 235 226 215 199 197 198 200 199 196 195 192 193 191 189 188
302 301 305 303 298 294 294 292 287 287 277 271 268 267 254 254 266 245 225 222 211 201 200 197 200 200 200 193 192 186 188 190
311 307 305 301 298 295 292 289 286 282 276 272 260 257 256 243 238 247 238 230 214 210 204 190 197 201 207 194 186 185 189 193
306 304 302 297 295 288 291 282 279 275 268 270 261 256 247 249 230 237 247 231 223 215 210 202 206 201 206 198 198 193 197 204
299 298 298 297 296 293 287 287 272 270 271 267 262 259 258 242 241 225 235 237 236 221 216 210 204 202 203 206 207 204 205 208
305 301 299 297 296 295 288 280 277 270 267 255 253 247 250 257 239 237 229 231 233 237 221 217 211 204 206 212 211 202 205 213
309 306 301 300 301 299 289 285 280 276 270 262 252 246 245 249 243 235 233 230 227 230 238 228 216 211 213 217 216 207 211 214
314 312 308 308 307 304 296 288 285 278 272 263 254 250 240 242 253 234 230 228 226 224 235 237 229 221 220 218 222 219 212 218
319 317 315 316 313 308 300 298 299 286 274 267 258 252 243 241 233 238 231 218 213 215 218 234 226 224 216 218 222 221 214 218
325 320 318 317 324 324 323 323 316 297 284 274 267 246 242 238 224 222 227 218 208 203 206 213 216 219 207 214 217 219 219 222
327 325 322 324 330 331 329 322 318 312 294 275 258 248 237 231 228 216 217 221 217 211 209 207 207 210 207 206 213 219 223 224
332 333 334 332 334 328 328 330 337 330 312 298 257 232 227 221 222 222 216 214 215 209 209 211 212 210 211 209 212 221 225 220
339 340 340 338 332 331 333 335 331 338 347 355 156 202 209 208 208 214 222 218 214 215 211 205 212 209 211 212 210 212 206 200
348 347 342 341 346 339 330 340 346 2 12 32 110 168 187 195 205 209 209 204 216 206 210 216 218 214 210 210 208 209 208 212
355 357 355 351 355 355 350 339 0 14 28 13 52 120 173 194 186 226 202 196 210 211 214 224 225 220 203 198 207 208 209 217
1 3 5 2 2 4 16 1 358 8 30 38 76 127 150 162 160 170 194 198 198 198 211 220 221 218 206 198 201 206 214 219
12 13 11 8 4 12 12 8 352 8 12 32 49 79 119 148 186 197 189 181 195 198 201 212 211 215 209 208 208 211 217 224
15 23 23 21 21 27 45 34 355 347 343 8 42 51 105 157 183 195 194 189 187 193 198 209 199 205 210 215 219 223 226 225